www.pogodaiklimat.ru
ПОГОДА в Зелианополе
Время
и дата
17:15 31.01
17:35 31.01
17:55 31.01
18:15 31.01
18:35 31.01
18:55 31.01
19:15 31.01
19:35 31.01
19:55 31.01
20:15 31.01
20:35 31.01
20:55 31.01
21:15 31.01
21:35 31.01
21:55 31.01
22:15 31.01
22:35 31.01
22:55 31.01
23:15 31.01
23:35 31.01
23:55 31.01
00:15 01.02
00:35 01.02
00:55 01.02
01:15 01.02
01:35 01.02
01:55 01.02
02:15 01.02
02:35 01.02
02:55 01.02
03:15 01.02
03:35 01.02
03:55 01.02
04:15 01.02
04:35 01.02
04:55 01.02
05:15 01.02
05:35 01.02
05:55 01.02
06:15 01.02
06:35 01.02
06:55 01.02
07:15 01.02
07:35 01.02
07:55 01.02
08:15 01.02
08:35 01.02
08:55 01.02
Ветер
(напр.,м/с)
Видим. Явления Облачность Т
(С)
Тd
(С)
f
(%)
Тe
(С)
Тes
(С)
Комфортность P
(гПа)
Po
(гПа)
Тmin
(С)
Tmax
(С)
R
(мм)
R24
(мм)
S
(см)
штиль 0 16 км ясно -4.0 -12.0 54 -4 -4 990.9
штиль 0 16 км ясно -4.0 -12.0 54 -4 -4 990.9
штиль 0 16 км ясно -5.0 -12.0 58 -6 -5 991.2
штиль 0 16 км ясно -5.0 -11.0 63 -6 -6 991.2
штиль 0 16 км ясно -5.0 -11.0 63 -6 -6 990.9
СЗ 2 16 км ясно -5.0 -10.0 68 -9 -9 990.9
штиль 0 16 км ясно -5.0 -10.0 68 -6 -6 990.9
штиль 0 16 км ясно -5.0 -10.0 68 -6 -6 991.2
штиль 0 16 км ясно -5.0 -11.0 63 -6 -6 991.2
З 2 16 км ясно -5.0 -11.0 63 -9 -9 991.9
штиль 0 16 км ясно -5.0 -11.0 63 -6 -6 991.2
штиль 0 16 км ясно -5.0 -11.0 63 -6 -6 991.5
штиль 0 16 км ясно -5.0 -11.0 63 -6 -6 991.2
штиль 0 16 км 5/0 3600 m
[Ac]
-5.0 -11.0 63 -6 -6 991.5
штиль 0 16 км 5/0 3600 m
[Ac]
-5.0 -11.0 63 -6 -6 991.5
штиль 0 16 км ясно -5.0 -10.0 68 -6 -6 991.5
штиль 0 16 км 5/0 3600 m
[Ac]
-5.0 -11.0 63 -6 -6 991.5
штиль 0 16 км 5/0 3600 m
[Ac]
-5.0 -11.0 63 -6 -6 991.2
штиль 0 16 км ясно -5.0 -11.0 63 -6 -6 991.5
штиль 0 16 км 5/0 3600 m
[Ac]
-5.0 -11.0 63 -6 -6 991.5
штиль 0 16 км 8/0 3600 m
[Ac]
-5.0 -11.0 63 -6 -6 991.5
СЗ 3 16 км 5/0 3600 m
[Ac]
-5.0 -10.0 68 -10 -10 991.9
З 3 16 км 8/0 3300 m
[Ac]
-6.0 -10.0 73 -11 -11 992.2
СЗ 3 16 км 10/0 3000 m
[Ac]
-6.0 -10.0 73 -11 -11 991.9
СЗ 3 16 км 10/0 3300 m
[Ac]
-7.0 -10.0 79 -13 -13 991.9
СЗ 3 16 км 8/5 540 m
[Ac]
-7.0 -11.0 73 -13 -13 991.9
СЗ 2 16 км 5/5 540 м -7.0 -11.0 73 -11 -11 991.9
штиль 0 16 км 5/5 510 м -8.0 -11.0 79 -9 -9 992.2
штиль 0 16 км 5/5 570 м -8.0 -11.0 79 -9 -9 992.5
штиль 0 16 км 8/8 570 м -8.0 -11.0 79 -9 -9 992.8
штиль 0 16 км ясно -8.0 -11.0 79 -9 -9 993.2
штиль 0 16 км ясно -8.0 -11.0 79 -9 -9 993.2
штиль 0 16 км 5/5 600 м -8.0 -11.0 79 -9 -9 993.2
штиль 0 16 км 5/5 600 м -8.0 -11.0 79 -9 -9 993.2
штиль 0 16 км 5/5 660 м -9.0 -11.0 85 -10 -10 993.2
штиль 0 16 км 8/8 660 м -9.0 -11.0 85 -10 -10 993.5
штиль 0 16 км 10/10 660 м -8.0 -10.0 85 -9 -9 993.5
З 2 16 км слабый снег 10/10 660 m
[Ns]
-8.0 -11.0 79 -12 -12 993.5
З 2 16 км слабый снег 8/8 720 m
[Ns]
-9.0 -11.0 85 -13 -13 993.5
З 2 16 км 5/5 720 м -9.0 -12.0 79 -13 -13 993.8
штиль 0 16 км ясно -10.0 -12.0 85 -10 -10 994.1
штиль 0 16 км 5/5 780 м -10.0 -12.0 85 -10 -10 994.1
штиль 0 16 км 5/5 780 м -10.0 -12.0 85 -10 -10 994.1
штиль 0 16 км слабый снег 5/5 780 m
[Ns]
-11.0 -12.0 92 -11 -11 994.8
штиль 0 16 км ясно -10.0 -12.0 85 -10 -10 995.1
штиль 0 16 км ясно -10.0 -12.0 85 -10 -10 995.1
З 2 16 км ясно -9.0 -12.0 79 -13 -13 995.5
штиль 0 16 км ясно -8.0 -12.0 73 -9 -8 995.8
Местоположение метеостанции Zelienople Municipal Airport: широта 40.8009 долгота -80.1624 высота над уровнем моря 273 м.
В архиве по умолчанию представлена погода в Зелианополе за последние 1-2 суток. Обновление информации о фактической погоде в базе происходит ежечасно! Архивные данные за месяц целиком и за предыдущие месяцы Вы можете получить, выбрав интересующий диапазон дат из раскрывающегося списка и нажав кнопку "Ввод!".
Внимание! Архив погоды МЕТАР в базе сайта по станциям, не включенным в климатический монитор, хранится не более 60 дней. Нет смысла пытаться выбрать более раннюю дату.
*Определитесь, кто Вы:
Внимание! Время в таблицах - местное (без учета летнего времени). Для получения всемирного времени необходимо вычесть поправку, которая равна -5 ч.
Смотрите также архив погоды в соседних городах и на ближайших метеорологических станциях:
Партнеры нашего сайта:      
Пояснения к столбцам:
  • Ветер - указаны скорость ветра в м/с - средняя за 10 мин, порывы в срок и между сроками (в фигурных скобках) и направление, откуда дует ветер: С - северный,
  • СВ - северо-восточный, В - восточный, ЮВ - юго-восточный, Ю - южный, ЮЗ - юго-западный, З - западный, СЗ - северо-западный.
  • Видимость - горизонтальная дальность видимости в метрах или километрах. При видимости от 1 до 10 км при отсутствии осадков обычно наблюдается дымка, при ухудшении видимости до 1 км и менее - туман. В сухую погоду видимость может ухудшаться дымом, пылью или мглою.
  • Явления - указаны атмосферные явления, наблюдавшиеся в срок или в последний час перед сроком; фигурными скобками обозначены явления, наблюдавшиеся между сроками (за 1-3 часа до срока); квадратными скобками обозначены град или гололедные отложения с указанием их диаметра в мм.
  • Облачность - указаны через наклонную черту общая и нижняя облачность в баллах и высота нижней границы облаков в метрах; квадратными скобками обозначены формы облаков: Ci - перистые, Cs - перисто-слоистые, Cc - перисто-кучевые, Ac - высококучевые, As - высокослоистые, Sc - слоисто-кучевые, Ns - слоисто-дождевые, Cu - кучевые, Cb - кучево-дождевые. Подробнее классификацию облаков см. в Атласе облаков (PDF).
  • T - Температура воздуха - температура, измеренная на высоте 2 м над землей.
  • Td - Температура точки росы - температура, при понижении до которой содержащийся в воздухе водяной пар достигнет насыщения.
  • f - Относительная влажность воздуха - влажноcть воздуха, измеренная на высоте 2 м над землей.
  • Te - Эффективная температура - температура, которую ощущает одетый по сезону человек в тени. Характеристика душности погоды. При расчете учитывается влияние влажности воздуха и скорости ветра на теплоощущения человека.
  • Tes - Эффективная температура на солнце - температура, которую ощущает человек, с поправкой на солнечный нагрев. Характеристика знойности погоды. Зависит от высоты солнца над горизонтом, облачности и скорости ветра. Ночью, в пасмурную погоду, а также при ветре 12 м/с и более поправка равна нулю.
  • P - Атмосферное давление - приведенное к уровню моря атмосферное давление.
  • Po - Атмосферное давление - измеренное на уровне метеостанции атмосферное давление.
  • Tmin - Минимальная температура - минимум температуры воздуха на высоте 2 м над землей.
  • Tmax - Максимальная температура - максимум температуры воздуха на высоте 2 м над землей.
  • R - Количество осадков - Количество выпавших осадков за период времени, мм. При наведении курсора мыши на число - период времени, за который выпало указанное количество осадков.
  • R24 - Количество осадков - Количество выпавших осадков за 24 часа, мм.
  • S - Снежный покров - Высота снежного покрова, см. При наведении курсора мыши на число - состояние снежного покрова и степень покрытия местности в баллах.